OIAH  Gachsaran Airport

Add Bookmark

Iran

Status
Operational
Latitude Longitude
30° 20' 15" N 50° 49' 40" E
30.337601 50.827999
Local (DST + 5) UTC (GMT + 4)
Sep 18, 2014 02:10 Sep 18, 2014 09:40
Sunrise-Sunset Local UTC
Begin Civil Twilight 06:27 01:57
Sunrise 06:51 02:21
Sunset 07:09 14:39
End Civil Twilight 07:33 15:03

Current Weather

METAR Observed VFR
OIAH 180500Z 00000KT CAVOK 29/13 Q1011 Thu, Sep 18, 2014 @ 05:00 UTC
(4 Hours, 40 Minutes ago)
Visual Flight Rules
Wind Visibility Clouds Conditions
Calm 10 km or more
  • Clear skies
  • No significant weather
Temperatures Readings Precipitation
Current Temp 29°C (84°F)
Dewpoint 13°C (55°F)
Humidity 37%
Altimeter 29.85"Hg
Sea Level Pressure 1011mb
Field Elevation 2421.26'
None Recorded

Additional weather within a 92.6km radius of OIAH

Map ICAO Location
OISY 79.6km E (059°)

24 Hour Weather History

Loading
-

24 Hour Weather Graphs

Loading
-

CheckWX.com is intended as a tool to help pilots better visualize weather data. It is not intended as a substitute for an official weather briefing obtained from a Flight Service Station. CheckWX.com does not meet the FAA requirements for an official pre-flight weather briefing. Therefore, it's important that pilots still call and obtain an official FSS pre-flight weather briefing.